Location: Dzierzno
(50.6159°N, 19.2852°E)
Time: 00:27:58
(UTC+00:00)

Cosmos 1954 Rocket - Visible Passes

Search period start: 16 February 2026 00:00
Search period end: 26 February 2026 00:00
Orbit: 747 x 777 km, 74.0° (Epoch: 14 February)

Date Brightness Start Highest point End Pass type
(mag) Time Alt. Az. Time Alt. Az. Time Alt. Az.
16 Feb 6.5 02:32:58 11° N 02:32:58 11° N 02:33:27 10° N visible
17 Feb 6.7 01:54:44 11° N 01:54:44 11° N 01:55:05 10° N visible
18 Feb 6.9 01:16:29 10° N 01:16:29 10° N 01:16:32 10° N visible
20 Feb 6.8 01:40:05 10° N 01:40:05 10° N 01:40:09 10° N visible
